TimeEDT,TemperatureF,Dew PointF,Humidity,Sea Level PressureIn,VisibilityMPH,Wind Direction,Wind SpeedMPH,Gust SpeedMPH,PrecipitationIn,Events,Conditions,WindDirDegrees,DateUTC
12:53 AM,66.9,62.1,84,30.16,10.0,SE,5.8,-,N/A,,Clear,140,2013-04-10 04:53:00
1:53 AM,66.9,62.1,84,30.14,10.0,SE,5.8,-,N/A,,Clear,140,2013-04-10 05:53:00
2:53 AM,66.0,63.0,90,30.12,10.0,SE,5.8,-,N/A,,Clear,130,2013-04-10 06:53:00
3:53 AM,66.0,63.0,90,30.11,10.0,SE,5.8,-,N/A,,Clear,140,2013-04-10 07:53:00
4:53 AM,66.0,64.0,93,30.12,10.0,SE,6.9,-,N/A,,Clear,140,2013-04-10 08:53:00
5:53 AM,66.0,64.0,93,30.12,10.0,SE,3.5,-,N/A,,Clear,140,2013-04-10 09:53:00
6:53 AM,64.9,63.0,93,30.12,10.0,Calm,Calm,-,N/A,,Clear,0,2013-04-10 10:53:00
7:53 AM,64.9,63.0,93,30.13,9.0,Calm,Calm,-,N/A,,Clear,0,2013-04-10 11:53:00
8:53 AM,70.0,63.0,78,30.14,10.0,SE,3.5,-,N/A,,Clear,130,2013-04-10 12:53:00
9:53 AM,73.0,60.1,64,30.17,10.0,SE,5.8,-,N/A,,Clear,130,2013-04-10 13:53:00
10:53 AM,73.9,61.0,64,30.17,10.0,ESE,8.1,-,N/A,,Clear,120,2013-04-10 14:53:00
11:53 AM,75.0,61.0,62,30.16,10.0,ESE,8.1,-,N/A,,Clear,120,2013-04-10 15:53:00
12:53 PM,77.0,60.8,57,30.15,10.0,ESE,9.2,-,N/A,,Clear,110,2013-04-10 16:53:00
1:53 PM,77.0,62.1,60,30.14,10.0,ESE,9.2,-,N/A,,Partly Cloudy,110,2013-04-10 17:53:00
2:53 PM,78.1,64.0,62,30.12,10.0,ESE,10.4,-,N/A,,Clear,110,2013-04-10 18:53:00
3:53 PM,75.9,64.0,67,30.09,10.0,East,11.5,-,N/A,,Clear,90,2013-04-10 19:53:00
4:53 PM,75.9,64.9,69,30.08,10.0,East,9.2,17.3,N/A,,Clear,100,2013-04-10 20:53:00
5:53 PM,73.9,64.9,73,30.07,10.0,East,10.4,-,N/A,,Clear,90,2013-04-10 21:53:00
6:53 PM,72.0,64.9,78,30.05,10.0,East,9.2,-,N/A,,Clear,100,2013-04-10 22:53:00
7:53 PM,70.0,66.0,87,30.05,10.0,ESE,6.9,-,N/A,,Clear,120,2013-04-10 23:53:00
8:53 PM,69.1,66.0,90,30.05,10.0,ESE,5.8,-,N/A,,Clear,120,2013-04-11 00:53:00
9:53 PM,69.1,64.9,87,30.04,10.0,SE,5.8,-,N/A,,Clear,130,2013-04-11 01:53:00
10:53 PM,69.1,64.9,87,30.04,10.0,SE,6.9,-,N/A,,Clear,130,2013-04-11 02:53:00
11:53 PM,69.1,64.9,87,30.02,10.0,SE,5.8,-,N/A,,Clear,140,2013-04-11 03:53:00